Torna al catalogo

STARLINK-37005

AttivoComunicazioniSSO
NORAD 68107·PAYLOAD·🇺🇸 United States

Lanciato Mar 8, 2026 da Vandenberg Space Force Base

Loading…

Prossimi Passaggi (prossime 24 ore)

TLE

AggiornatoSource: CelesTrak SupGP

Epoca: Sep 15, 2026, 04:13 UTC

1 68107C 26044G   26258.17618056  .00042898  00000+0  13320-2 0  2584
2 68107  97.2849 217.1417 0002000  96.0781  58.8478 15.33407394    19

Traccia STARLINK-37005 in tempo reale con AllMySat

Download on the App Store